Time,TemperatureF,DewpointF,PressureIn,WindDirection,WindDirectionDegrees,WindSpeedMPH,WindSpeedGustMPH,Humidity,HourlyPrecipIn,Conditions,Clouds,dailyrainin,SoftwareType,DateUTC
2013-03-20 00:00:00,37.2,20.7,30.04,West,279,0.0,0.0,51,0.00,,,0.00,Wunderground v.1.15,2013-03-20 04:00:00,
2013-03-20 00:05:00,37.0,20.1,30.04,West,279,0.0,0.0,50,0.00,,,0.00,Wunderground v.1.15,2013-03-20 04:05:00,
2013-03-20 00:15:00,36.7,19.8,30.04,West,279,0.0,0.0,50,0.00,,,0.00,Wunderground v.1.15,2013-03-20 04:15:00,
2013-03-20 00:20:00,36.6,19.2,30.04,West,279,0.0,0.0,49,0.00,,,0.00,Wunderground v.1.15,2013-03-20 04:20:00,
2013-03-20 00:25:00,36.5,18.2,30.04,West,279,0.0,0.0,47,0.00,,,0.00,Wunderground v.1.15,2013-03-20 04:25:00,
2013-03-20 00:30:00,36.5,17.1,30.04,West,279,0.0,0.0,45,0.00,,,0.00,Wunderground v.1.15,2013-03-20 04:30:00,
2013-03-20 00:35:00,36.8,16.9,30.03,West,279,0.0,0.0,44,0.00,,,0.00,Wunderground v.1.15,2013-03-20 04:35:00,
2013-03-20 00:40:00,37.2,17.3,30.03,West,279,0.0,0.0,44,0.00,,,0.00,Wunderground v.1.15,2013-03-20 04:40:00,
2013-03-20 00:45:00,37.7,17.7,30.03,West,279,0.0,1.0,44,0.00,,,0.00,Wunderground v.1.15,2013-03-20 04:45:00,
2013-03-20 00:50:00,37.9,18.4,30.03,West,279,0.0,0.0,45,0.00,,,0.00,Wunderground v.1.15,2013-03-20 04:50:00,
2013-03-20 00:55:00,37.9,17.9,30.03,West,279,0.0,0.0,44,0.00,,,0.00,Wunderground v.1.15,2013-03-20 04:55:00,
2013-03-20 01:00:00,37.9,17.9,30.02,West,279,0.0,0.0,44,0.00,,,0.00,Wunderground v.1.15,2013-03-20 05:00:00,
2013-03-20 01:06:00,37.9,16.8,30.02,West,279,0.0,1.0,42,0.00,,,0.00,Wunderground v.1.15,2013-03-20 05:06:00,
2013-03-20 01:10:00,38.0,18.0,30.02,West,279,0.0,0.0,44,0.00,,,0.00,Wunderground v.1.15,2013-03-20 05:10:00,
2013-03-20 01:15:00,37.8,17.3,30.02,West,279,0.0,0.0,43,0.00,,,0.00,Wunderground v.1.15,2013-03-20 05:15:00,
2013-03-20 01:20:00,37.5,17.0,30.02,West,279,0.0,0.0,43,0.00,,,0.00,Wunderground v.1.15,2013-03-20 05:20:00,
2013-03-20 01:25:00,37.3,16.8,30.02,West,279,0.0,0.0,43,0.00,,,0.00,Wunderground v.1.15,2013-03-20 05:25:00,
2013-03-20 01:30:00,37.1,17.2,30.02,West,279,0.0,0.0,44,0.00,,,0.00,Wunderground v.1.15,2013-03-20 05:30:00,
2013-03-20 01:35:00,36.9,16.5,30.02,West,279,0.0,0.0,43,0.00,,,0.00,Wunderground v.1.15,2013-03-20 05:35:00,
2013-03-20 01:40:00,36.7,16.8,30.02,West,279,0.0,0.0,44,0.00,,,0.00,Wunderground v.1.15,2013-03-20 05:40:00,
2013-03-20 01:45:00,36.6,18.2,30.02,West,279,0.0,0.0,47,0.00,,,0.00,Wunderground v.1.15,2013-03-20 05:45:00,
2013-03-20 01:50:00,36.4,17.1,30.03,West,279,0.0,0.0,45,0.00,,,0.00,Wunderground v.1.15,2013-03-20 05:50:00,
2013-03-20 01:55:00,36.3,17.0,30.02,West,279,0.0,0.0,45,0.00,,,0.00,Wunderground v.1.15,2013-03-20 05:55:00,
2013-03-20 02:05:00,36.2,17.4,30.02,West,279,0.0,0.0,46,0.00,,,0.00,Wunderground v.1.15,2013-03-20 06:05:00,
2013-03-20 02:10:00,36.2,16.9,30.02,West,279,0.0,0.0,45,0.00,,,0.00,Wunderground v.1.15,2013-03-20 06:10:00,
2013-03-20 02:15:00,36.2,16.9,30.02,West,279,0.0,0.0,45,0.00,,,0.00,Wunderground v.1.15,2013-03-20 06:15:00,
2013-03-20 02:20:00,36.2,18.4,30.02,West,279,0.0,0.0,48,0.00,,,0.00,Wunderground v.1.15,2013-03-20 06:20:00,
2013-03-20 02:25:00,36.2,19.8,30.02,West,279,0.0,0.0,51,0.00,,,0.00,Wunderground v.1.15,2013-03-20 06:25:00,
2013-03-20 02:30:00,36.1,19.2,30.02,West,279,0.0,0.0,50,0.00,,,0.00,Wunderground v.1.15,2013-03-20 06:30:00,
2013-03-20 02:35:00,36.1,19.7,30.03,West,279,0.0,0.0,51,0.00,,,0.00,Wunderground v.1.15,2013-03-20 06:35:00,
2013-03-20 02:40:00,36.1,20.6,30.03,West,279,0.0,0.0,53,0.00,,,0.00,Wunderground v.1.15,2013-03-20 06:40:00,
2013-03-20 02:45:00,36.0,19.6,30.03,West,279,0.0,0.0,51,0.00,,,0.00,Wunderground v.1.15,2013-03-20 06:45:00,
2013-03-20 02:50:00,36.1,20.2,30.03,West,279,0.0,0.0,52,0.00,,,0.00,Wunderground v.1.15,2013-03-20 06:50:00,
2013-03-20 02:55:00,36.1,20.6,30.03,West,279,0.0,0.0,53,0.00,,,0.00,Wunderground v.1.15,2013-03-20 06:55:00,
2013-03-20 03:00:00,36.1,22.3,30.03,West,279,0.0,1.0,57,0.00,,,0.00,Wunderground v.1.15,2013-03-20 07:00:00,
2013-03-20 03:05:00,36.1,21.5,30.03,West,279,0.0,1.0,55,0.00,,,0.00,Wunderground v.1.15,2013-03-20 07:05:00,
2013-03-20 03:10:00,36.1,21.5,30.03,West,279,0.0,0.0,55,0.00,,,0.00,Wunderground v.1.15,2013-03-20 07:10:00,
2013-03-20 03:15:00,36.0,22.2,30.03,West,279,0.0,0.0,57,0.00,,,0.00,Wunderground v.1.15,2013-03-20 07:15:00,
2013-03-20 03:20:00,35.9,21.7,30.03,West,279,0.0,0.0,56,0.00,,,0.00,Wunderground v.1.15,2013-03-20 07:20:00,
2013-03-20 03:25:00,35.9,22.5,30.03,West,279,0.0,0.0,58,0.00,,,0.00,Wunderground v.1.15,2013-03-20 07:25:00,
2013-03-20 03:30:00,35.9,22.1,30.03,West,279,0.0,0.0,57,0.00,,,0.00,Wunderground v.1.15,2013-03-20 07:30:00,
2013-03-20 03:35:00,35.9,20.9,30.02,West,279,0.0,0.0,54,0.00,,,0.00,Wunderground v.1.15,2013-03-20 07:35:00,
2013-03-20 03:40:00,35.8,20.3,30.02,West,279,0.0,0.0,53,0.00,,,0.00,Wunderground v.1.15,2013-03-20 07:40:00,
2013-03-20 03:45:00,35.9,22.1,30.02,West,279,0.0,0.0,57,0.00,,,0.00,Wunderground v.1.15,2013-03-20 07:45:00,
2013-03-20 03:50:00,35.9,22.1,30.02,West,279,0.0,0.0,57,0.00,,,0.00,Wunderground v.1.15,2013-03-20 07:50:00,
2013-03-20 03:55:00,36.0,22.6,30.02,West,279,0.0,0.0,58,0.00,,,0.00,Wunderground v.1.15,2013-03-20 07:55:00,
2013-03-20 04:00:00,36.0,22.6,30.01,West,279,0.0,0.0,58,0.00,,,0.00,Wunderground v.1.15,2013-03-20 08:00:00,
2013-03-20 04:05:00,36.1,23.5,30.01,West,279,0.0,0.0,60,0.00,,,0.00,Wunderground v.1.15,2013-03-20 08:05:00,
2013-03-20 04:10:00,36.1,22.3,30.01,West,279,0.0,0.0,57,0.00,,,0.00,Wunderground v.1.15,2013-03-20 08:10:00,
2013-03-20 04:15:00,36.1,23.1,30.01,West,279,0.0,0.0,59,0.00,,,0.00,Wunderground v.1.15,2013-03-20 08:15:00,
2013-03-20 04:20:00,36.2,22.8,30.01,West,279,0.0,0.0,58,0.00,,,0.00,Wunderground v.1.15,2013-03-20 08:20:00,
2013-03-20 04:25:00,36.2,22.4,30.01,West,279,0.0,0.0,57,0.00,,,0.00,Wunderground v.1.15,2013-03-20 08:25:00,
2013-03-20 04:30:00,36.3,22.1,30.01,West,279,0.0,0.0,56,0.00,,,0.00,Wunderground v.1.15,2013-03-20 08:30:00,
2013-03-20 04:35:00,36.4,22.6,30.01,West,279,0.0,0.0,57,0.00,,,0.00,Wunderground v.1.15,2013-03-20 08:35:00,
2013-03-20 04:40:00,36.4,23.0,30.00,West,279,0.0,0.0,58,0.00,,,0.00,Wunderground v.1.15,2013-03-20 08:40:00,
2013-03-20 04:45:00,36.4,21.8,30.00,West,279,0.0,0.0,55,0.00,,,0.00,Wunderground v.1.15,2013-03-20 08:45:00,
2013-03-20 04:50:00,36.4,21.8,30.00,West,279,0.0,0.0,55,0.00,,,0.00,Wunderground v.1.15,2013-03-20 08:50:00,
2013-03-20 04:55:00,36.3,22.1,30.00,West,279,0.0,0.0,56,0.00,,,0.00,Wunderground v.1.15,2013-03-20 08:55:00,
2013-03-20 05:00:00,36.2,22.4,30.00,West,279,0.0,0.0,57,0.00,,,0.00,Wunderground v.1.15,2013-03-20 09:00:00,
2013-03-20 05:05:00,36.0,21.4,30.00,West,279,0.0,0.0,55,0.00,,,0.00,Wunderground v.1.15,2013-03-20 09:05:00,
2013-03-20 05:10:00,35.8,21.6,30.00,West,279,0.0,0.0,56,0.00,,,0.00,Wunderground v.1.15,2013-03-20 09:10:00,
2013-03-20 05:15:00,35.5,19.1,30.00,West,279,0.0,0.0,51,0.00,,,0.00,Wunderground v.1.15,2013-03-20 09:15:00,
2013-03-20 05:20:00,35.2,18.4,30.00,West,279,0.0,0.0,50,0.00,,,0.00,Wunderground v.1.15,2013-03-20 09:20:00,
2013-03-20 05:25:00,34.8,18.9,30.00,West,279,0.0,0.0,52,0.00,,,0.00,Wunderground v.1.15,2013-03-20 09:25:00,
2013-03-20 05:30:00,34.5,17.3,30.00,West,279,0.0,0.0,49,0.00,,,0.00,Wunderground v.1.15,2013-03-20 09:30:00,
2013-03-20 05:35:00,34.4,16.7,30.00,West,279,0.0,0.0,48,0.00,,,0.00,Wunderground v.1.15,2013-03-20 09:35:00,
2013-03-20 05:45:00,34.1,17.8,30.00,West,279,0.0,0.0,51,0.00,,,0.00,Wunderground v.1.15,2013-03-20 09:45:00,
2013-03-20 05:50:00,33.9,17.7,30.01,West,279,0.0,0.0,51,0.00,,,0.00,Wunderground v.1.15,2013-03-20 09:50:00,
2013-03-20 05:55:00,33.9,18.6,30.01,West,279,0.0,0.0,53,0.00,,,0.00,Wunderground v.1.15,2013-03-20 09:55:00,
2013-03-20 06:00:00,33.8,19.3,30.01,West,279,0.0,0.0,55,0.00,,,0.00,Wunderground v.1.15,2013-03-20 10:00:00,
2013-03-20 06:05:00,33.6,19.6,30.01,West,279,0.0,0.0,56,0.00,,,0.00,Wunderground v.1.15,2013-03-20 10:05:00,
2013-03-20 06:10:00,33.5,18.6,30.01,West,279,0.0,0.0,54,0.00,,,0.00,Wunderground v.1.15,2013-03-20 10:10:00,
2013-03-20 06:15:00,33.3,18.9,30.01,West,279,0.0,0.0,55,0.00,,,0.00,Wunderground v.1.15,2013-03-20 10:15:00,
2013-03-20 06:20:00,33.2,18.3,30.01,West,279,0.0,0.0,54,0.00,,,0.00,Wunderground v.1.15,2013-03-20 10:20:00,
2013-03-20 06:25:00,33.1,17.8,30.02,West,279,0.0,0.0,53,0.00,,,0.00,Wunderground v.1.15,2013-03-20 10:25:00,
2013-03-20 06:30:00,33.0,18.6,30.02,West,279,0.0,0.0,55,0.00,,,0.00,Wunderground v.1.15,2013-03-20 10:30:00,
2013-03-20 06:35:00,33.0,19.0,30.02,West,279,0.0,0.0,56,0.00,,,0.00,Wunderground v.1.15,2013-03-20 10:35:00,
2013-03-20 06:40:00,33.0,18.6,30.02,West,279,0.0,0.0,55,0.00,,,0.00,Wunderground v.1.15,2013-03-20 10:40:00,
2013-03-20 06:45:00,33.0,18.6,30.02,West,279,0.0,0.0,55,0.00,,,0.00,Wunderground v.1.15,2013-03-20 10:45:00,
2013-03-20 06:50:00,32.9,19.3,30.03,West,279,0.0,0.0,57,0.00,,,0.00,Wunderground v.1.15,2013-03-20 10:50:00,
2013-03-20 06:55:00,32.8,18.8,30.03,West,279,0.0,0.0,56,0.00,,,0.00,Wunderground v.1.15,2013-03-20 10:55:00,
2013-03-20 07:00:00,32.7,20.3,30.03,West,279,0.0,0.0,60,0.00,,,0.00,Wunderground v.1.15,2013-03-20 11:00:00,
2013-03-20 07:05:00,32.6,19.8,30.04,West,279,0.0,0.0,59,0.00,,,0.00,Wunderground v.1.15,2013-03-20 11:05:00,
2013-03-20 07:10:00,32.5,19.3,30.04,West,279,0.0,0.0,58,0.00,,,0.00,Wunderground v.1.15,2013-03-20 11:10:00,
2013-03-20 07:15:00,32.5,18.9,30.04,West,279,0.0,0.0,57,0.00,,,0.00,Wunderground v.1.15,2013-03-20 11:15:00,
2013-03-20 07:20:00,32.5,19.3,30.04,West,279,0.0,0.0,58,0.00,,,0.00,Wunderground v.1.15,2013-03-20 11:20:00,
2013-03-20 07:25:00,32.5,19.7,30.04,West,279,0.0,0.0,59,0.00,,,0.00,Wunderground v.1.15,2013-03-20 11:25:00,
2013-03-20 07:30:00,32.5,19.7,30.05,West,279,0.0,0.0,59,0.00,,,0.00,Wunderground v.1.15,2013-03-20 11:30:00,
2013-03-20 07:35:00,32.6,19.8,30.05,West,279,0.0,0.0,59,0.00,,,0.00,Wunderground v.1.15,2013-03-20 11:35:00,
2013-03-20 07:40:00,32.6,19.8,30.05,West,279,0.0,0.0,59,0.00,,,0.00,Wunderground v.1.15,2013-03-20 11:40:00,
2013-03-20 07:45:00,32.7,20.3,30.05,West,279,0.0,0.0,60,0.00,,,0.00,Wunderground v.1.15,2013-03-20 11:45:00,
2013-03-20 07:50:00,32.8,20.0,30.05,West,279,0.0,0.0,59,0.00,,,0.00,Wunderground v.1.15,2013-03-20 11:50:00,
2013-03-20 07:55:00,32.9,19.3,30.06,West,279,0.0,0.0,57,0.00,,,0.00,Wunderground v.1.15,2013-03-20 11:55:00,
2013-03-20 08:00:00,33.1,19.1,30.06,West,279,0.0,0.0,56,0.00,,,0.00,Wunderground v.1.15,2013-03-20 12:00:00,
2013-03-20 08:05:00,33.2,19.2,30.06,West,279,0.0,0.0,56,0.00,,,0.00,Wunderground v.1.15,2013-03-20 12:05:00,
2013-03-20 08:10:00,33.3,18.9,30.05,West,279,0.0,0.0,55,0.00,,,0.00,Wunderground v.1.15,2013-03-20 12:10:00,
2013-03-20 08:15:00,33.4,19.4,30.05,West,279,0.0,0.0,56,0.00,,,0.00,Wunderground v.1.15,2013-03-20 12:15:00,
2013-03-20 08:20:00,33.5,19.0,30.05,West,279,0.0,0.0,55,0.00,,,0.00,Wunderground v.1.15,2013-03-20 12:20:00,
2013-03-20 08:25:00,33.5,19.0,30.05,West,279,0.0,0.0,55,0.00,,,0.00,Wunderground v.1.15,2013-03-20 12:25:00,
2013-03-20 08:30:00,33.7,18.8,30.05,West,279,0.0,0.0,54,0.00,,,0.00,Wunderground v.1.15,2013-03-20 12:30:00,
2013-03-20 08:35:00,33.8,19.3,30.05,West,279,0.0,0.0,55,0.00,,,0.00,Wunderground v.1.15,2013-03-20 12:35:00,
2013-03-20 08:40:00,34.0,19.5,30.05,West,279,0.0,0.0,55,0.00,,,0.00,Wunderground v.1.15,2013-03-20 12:40:00,
2013-03-20 08:45:00,34.1,19.2,30.05,West,279,0.0,0.0,54,0.00,,,0.00,Wunderground v.1.15,2013-03-20 12:45:00,
2013-03-20 08:50:00,34.3,19.8,30.06,West,279,0.0,0.0,55,0.00,,,0.00,Wunderground v.1.15,2013-03-20 12:50:00,
2013-03-20 08:55:00,34.4,19.5,30.06,West,280,0.0,0.0,54,0.00,,,0.00,Wunderground v.1.15,2013-03-20 12:55:00,
2013-03-20 09:00:00,34.4,18.6,30.06,West,280,0.0,0.0,52,0.00,,,0.00,Wunderground v.1.15,2013-03-20 13:00:00,
2013-03-20 09:05:00,34.6,19.2,30.06,West,281,0.0,1.0,53,0.00,,,0.00,Wunderground v.1.15,2013-03-20 13:05:00,
2013-03-20 09:10:00,34.9,19.5,30.06,West,281,0.0,0.0,53,0.00,,,0.00,Wunderground v.1.15,2013-03-20 13:10:00,
2013-03-20 09:15:00,35.2,19.8,30.06,West,281,0.0,1.0,53,0.00,,,0.00,Wunderground v.1.15,2013-03-20 13:15:00,
2013-03-20 09:20:00,35.4,19.5,30.05,West,280,0.0,0.0,52,0.00,,,0.00,Wunderground v.1.15,2013-03-20 13:20:00,
2013-03-20 09:25:00,35.6,19.7,30.06,West,280,0.0,0.0,52,0.00,,,0.00,Wunderground v.1.15,2013-03-20 13:25:00,
2013-03-20 09:30:00,35.7,19.3,30.06,West,280,0.0,0.0,51,0.00,,,0.00,Wunderground v.1.15,2013-03-20 13:30:00,
2013-03-20 09:35:00,35.9,20.0,30.06,West,281,0.0,0.0,52,0.00,,,0.00,Wunderground v.1.15,2013-03-20 13:35:00,
2013-03-20 09:40:00,36.1,20.2,30.06,West,281,0.0,0.0,52,0.00,,,0.00,Wunderground v.1.15,2013-03-20 13:40:00,
2013-03-20 09:45:00,36.3,20.3,30.06,West,281,0.0,0.0,52,0.00,,,0.00,Wunderground v.1.15,2013-03-20 13:45:00,
2013-03-20 09:50:00,36.6,20.6,30.06,West,280,0.0,0.0,52,0.00,,,0.00,Wunderground v.1.15,2013-03-20 13:50:00,
2013-03-20 09:55:00,36.8,20.3,30.07,West,281,0.0,0.0,51,0.00,,,0.00,Wunderground v.1.15,2013-03-20 13:55:00,
2013-03-20 10:00:00,37.1,21.1,30.07,West,281,0.0,0.0,52,0.00,,,0.00,Wunderground v.1.15,2013-03-20 14:00:00,
2013-03-20 10:05:00,37.3,20.3,30.07,West,281,0.0,1.0,50,0.00,,,0.00,Wunderground v.1.15,2013-03-20 14:05:00,
2013-03-20 10:10:00,37.6,21.1,30.07,West,281,0.0,0.0,51,0.00,,,0.00,Wunderground v.1.15,2013-03-20 14:10:00,
2013-03-20 10:15:00,37.9,20.9,30.08,West,281,0.0,0.0,50,0.00,,,0.00,Wunderground v.1.15,2013-03-20 14:15:00,
2013-03-20 10:20:00,38.1,21.5,30.07,West,280,0.0,0.0,51,0.00,,,0.00,Wunderground v.1.15,2013-03-20 14:20:00,
2013-03-20 10:25:00,38.4,22.7,30.07,West,280,0.0,0.0,53,0.00,,,0.00,Wunderground v.1.15,2013-03-20 14:25:00,
2013-03-20 10:30:00,38.6,20.1,30.07,West,281,0.0,0.0,47,0.00,,,0.00,Wunderground v.1.15,2013-03-20 14:30:00,
2013-03-20 10:35:00,38.7,20.7,30.08,West,281,0.0,2.0,48,0.00,,,0.00,Wunderground v.1.15,2013-03-20 14:35:00,
2013-03-20 10:40:00,38.8,20.8,30.08,West,281,0.0,0.0,48,0.00,,,0.00,Wunderground v.1.15,2013-03-20 14:40:00,
2013-03-20 10:45:00,38.9,20.4,30.08,West,281,0.0,0.0,47,0.00,,,0.00,Wunderground v.1.15,2013-03-20 14:45:00,
2013-03-20 10:50:00,39.2,20.1,30.08,West,281,0.0,0.0,46,0.00,,,0.00,Wunderground v.1.15,2013-03-20 14:50:00,
2013-03-20 10:55:00,39.5,20.4,30.08,West,280,0.0,0.0,46,0.00,,,0.00,Wunderground v.1.15,2013-03-20 14:55:00,
2013-03-20 11:00:00,39.8,20.2,30.08,West,279,1.0,2.0,45,0.00,,,0.00,Wunderground v.1.15,2013-03-20 15:00:00,
2013-03-20 11:06:00,40.0,20.3,30.08,West,279,1.0,2.0,45,0.00,,,0.00,Wunderground v.1.15,2013-03-20 15:06:00,
2013-03-20 11:15:00,40.1,18.3,30.07,West,279,0.0,2.0,41,0.00,,,0.00,Wunderground v.1.15,2013-03-20 15:15:00,
2013-03-20 11:20:00,40.0,18.7,30.07,West,279,1.0,1.0,42,0.00,,,0.00,Wunderground v.1.15,2013-03-20 15:20:00,
2013-03-20 11:25:00,40.5,18.0,30.07,West,279,1.0,1.0,40,0.00,,,0.00,Wunderground v.1.15,2013-03-20 15:25:00,
2013-03-20 11:35:00,40.7,18.2,30.07,West,279,1.0,1.0,40,0.00,,,0.00,Wunderground v.1.15,2013-03-20 15:35:00,
2013-03-20 11:40:00,40.8,18.3,30.07,West,278,1.0,1.0,40,0.00,,,0.00,Wunderground v.1.15,2013-03-20 15:40:00,
2013-03-20 11:45:00,41.5,18.9,30.07,West,277,0.0,1.0,40,0.00,,,0.00,Wunderground v.1.15,2013-03-20 15:45:00,
2013-03-20 11:50:00,41.8,19.8,30.06,West,273,1.0,1.0,41,0.00,,,0.00,Wunderground v.1.15,2013-03-20 15:50:00,
2013-03-20 11:55:00,42.7,20.6,30.06,West,265,1.0,1.0,41,0.00,,,0.00,Wunderground v.1.15,2013-03-20 15:55:00,
2013-03-20 12:00:00,43.1,16.6,30.05,WSW,252,1.0,2.0,34,0.00,,,0.00,Wunderground v.1.15,2013-03-20 16:00:00,
2013-03-20 12:06:00,43.1,17.9,30.04,WSW,252,1.0,2.0,36,0.00,,,0.00,Wunderground v.1.15,2013-03-20 16:06:00,
2013-03-20 12:10:00,43.4,18.2,30.05,WSW,252,1.0,2.0,36,0.00,,,0.00,Wunderground v.1.15,2013-03-20 16:10:00,
2013-03-20 12:15:00,43.8,16.5,30.05,WSW,249,1.0,2.0,33,0.00,,,0.00,Wunderground v.1.15,2013-03-20 16:15:00,
2013-03-20 12:20:00,44.2,16.9,30.04,WSW,248,1.0,1.0,33,0.00,,,0.00,Wunderground v.1.15,2013-03-20 16:20:00,
2013-03-20 12:25:00,44.9,18.9,30.05,WSW,253,1.0,1.0,35,0.00,,,0.00,Wunderground v.1.15,2013-03-20 16:25:00,
2013-03-20 12:30:00,45.9,16.9,30.04,West,273,1.0,1.0,31,0.00,,,0.00,Wunderground v.1.15,2013-03-20 16:30:00,
2013-03-20 12:35:00,46.3,16.5,30.04,WNW,289,2.0,3.0,30,0.00,,,0.00,Wunderground v.1.15,2013-03-20 16:35:00,
2013-03-20 12:40:00,46.4,20.2,30.04,West,264,2.0,5.0,35,0.00,,,0.00,Wunderground v.1.15,2013-03-20 16:40:00,
2013-03-20 12:45:00,46.7,17.6,30.03,West,275,2.0,5.0,31,0.00,,,0.00,Wunderground v.1.15,2013-03-20 16:45:00,
2013-03-20 12:50:00,46.7,18.4,30.03,West,259,2.0,4.0,32,0.00,,,0.00,Wunderground v.1.15,2013-03-20 16:50:00,
2013-03-20 12:55:00,46.2,16.4,30.03,WSW,244,3.0,5.0,30,0.00,,,0.00,Wunderground v.1.15,2013-03-20 16:55:00,
2013-03-20 13:00:00,47.1,18.7,30.02,WSW,245,3.0,3.0,32,0.00,,,0.00,Wunderground v.1.15,2013-03-20 17:00:00,
2013-03-20 13:06:00,48.5,19.2,30.02,WNW,287,2.0,3.0,31,0.00,,,0.00,Wunderground v.1.15,2013-03-20 17:06:00,
2013-03-20 13:15:00,49.9,22.6,30.02,West,268,2.0,7.0,34,0.00,,,0.00,Wunderground v.1.15,2013-03-20 17:15:00,
2013-03-20 13:25:00,49.9,18.9,30.01,West,271,2.0,5.0,29,0.00,,,0.00,Wunderground v.1.15,2013-03-20 17:25:00,
2013-03-20 13:30:00,50.5,19.4,30.01,West,276,2.0,3.0,29,0.00,,,0.00,Wunderground v.1.15,2013-03-20 17:30:00,
2013-03-20 13:35:00,50.9,18.9,30.00,WNW,286,2.0,3.0,28,0.00,,,0.00,Wunderground v.1.15,2013-03-20 17:35:00,
2013-03-20 13:40:00,52.0,19.9,30.00,WNW,288,1.0,1.0,28,0.00,,,0.00,Wunderground v.1.15,2013-03-20 17:40:00,
2013-03-20 13:45:00,52.7,21.3,29.99,West,281,1.0,1.0,29,0.00,,,0.00,Wunderground v.1.15,2013-03-20 17:45:00,
2013-03-20 13:50:00,53.0,20.7,29.99,WNW,284,1.0,1.0,28,0.00,,,0.00,Wunderground v.1.15,2013-03-20 17:50:00,
2013-03-20 13:55:00,53.8,20.6,29.98,West,281,1.0,1.0,27,0.00,,,0.00,Wunderground v.1.15,2013-03-20 17:55:00,
2013-03-20 14:05:00,54.2,18.1,29.98,SSW,196,1.0,1.0,24,0.00,,,0.00,Wunderground v.1.15,2013-03-20 18:05:00,
2013-03-20 14:10:00,52.3,17.5,29.97,West,267,2.0,3.0,25,0.00,,,0.00,Wunderground v.1.15,2013-03-20 18:10:00,
2013-03-20 14:15:00,51.7,17.9,29.97,WSW,250,3.0,3.0,26,0.00,,,0.00,Wunderground v.1.15,2013-03-20 18:15:00,
2013-03-20 14:20:00,52.3,18.4,29.96,WSW,257,2.0,2.0,26,0.00,,,0.00,Wunderground v.1.15,2013-03-20 18:20:00,
2013-03-20 14:25:00,52.1,20.8,29.96,West,271,2.0,3.0,29,0.00,,,0.00,Wunderground v.1.15,2013-03-20 18:25:00,
2013-03-20 14:30:00,52.5,18.6,29.95,WSW,257,2.0,2.0,26,0.00,,,0.00,Wunderground v.1.15,2013-03-20 18:30:00,
2013-03-20 14:35:00,53.4,21.9,29.95,WSW,255,2.0,3.0,29,0.00,,,0.00,Wunderground v.1.15,2013-03-20 18:35:00,
2013-03-20 14:40:00,53.4,19.3,29.94,West,265,2.0,2.0,26,0.00,,,0.00,Wunderground v.1.15,2013-03-20 18:40:00,
2013-03-20 14:45:00,52.6,20.4,29.94,West,279,2.0,2.0,28,0.00,,,0.00,Wunderground v.1.15,2013-03-20 18:45:00,
2013-03-20 14:50:00,53.6,21.2,29.93,WSW,252,2.0,2.0,28,0.00,,,0.00,Wunderground v.1.15,2013-03-20 18:50:00,
2013-03-20 15:00:00,54.7,24.6,29.92,WSW,246,1.0,2.0,31,0.00,,,0.00,Wunderground v.1.15,2013-03-20 19:00:00,
2013-03-20 15:05:00,55.1,20.8,29.92,West,261,2.0,5.0,26,0.00,,,0.00,Wunderground v.1.15,2013-03-20 19:05:00,
2013-03-20 15:10:00,55.1,20.8,29.91,West,278,2.0,2.0,26,0.00,,,0.00,Wunderground v.1.15,2013-03-20 19:10:00,
2013-03-20 15:15:00,55.8,20.5,29.91,WSW,257,1.0,2.0,25,0.00,,,0.00,Wunderground v.1.15,2013-03-20 19:15:00,
2013-03-20 15:20:00,56.6,20.2,29.91,NW,308,1.0,1.0,24,0.00,,,0.00,Wunderground v.1.15,2013-03-20 19:20:00,
2013-03-20 15:25:00,56.0,16.6,29.90,West,277,3.0,3.0,21,0.00,,,0.00,Wunderground v.1.15,2013-03-20 19:25:00,
2013-03-20 15:30:00,55.2,20.9,29.90,WNW,301,3.0,3.0,26,0.00,,,0.00,Wunderground v.1.15,2013-03-20 19:30:00,
2013-03-20 15:35:00,55.7,19.4,29.90,WNW,288,3.0,3.0,24,0.00,,,0.00,Wunderground v.1.15,2013-03-20 19:35:00,
2013-03-20 15:40:00,56.0,18.7,29.90,West,281,2.0,2.0,23,0.00,,,0.00,Wunderground v.1.15,2013-03-20 19:40:00,
2013-03-20 15:50:00,55.5,19.2,29.89,West,279,2.0,2.0,24,0.00,,,0.00,Wunderground v.1.15,2013-03-20 19:50:00,
2013-03-20 15:55:00,55.9,18.6,29.89,WNW,302,2.0,2.0,23,0.00,,,0.00,Wunderground v.1.15,2013-03-20 19:55:00,
2013-03-20 16:00:00,56.7,21.2,29.89,WNW,296,1.0,1.0,25,0.00,,,0.00,Wunderground v.1.15,2013-03-20 20:00:00,
2013-03-20 16:05:00,57.8,21.2,29.88,NW,311,1.0,1.0,24,0.00,,,0.00,Wunderground v.1.15,2013-03-20 20:05:00,
2013-03-20 16:10:00,58.3,20.6,29.88,WNW,287,1.0,2.0,23,0.00,,,0.00,Wunderground v.1.15,2013-03-20 20:10:00,
2013-03-20 16:15:00,58.5,23.7,29.87,WNW,299,1.0,2.0,26,0.00,,,0.00,Wunderground v.1.15,2013-03-20 20:15:00,
2013-03-20 16:20:00,58.7,21.0,29.87,WNW,298,1.0,1.0,23,0.00,,,0.00,Wunderground v.1.15,2013-03-20 20:20:00,
2013-03-20 16:25:00,59.0,22.2,29.87,WNW,292,1.0,1.0,24,0.00,,,0.00,Wunderground v.1.15,2013-03-20 20:25:00,
2013-03-20 16:30:00,59.0,21.2,29.87,WNW,298,1.0,2.0,23,0.00,,,0.00,Wunderground v.1.15,2013-03-20 20:30:00,
2013-03-20 16:35:00,59.0,21.2,29.86,WNW,302,2.0,2.0,23,0.00,,,0.00,Wunderground v.1.15,2013-03-20 20:35:00,
2013-03-20 16:40:00,58.4,21.7,29.86,WNW,303,2.0,2.0,24,0.00,,,0.00,Wunderground v.1.15,2013-03-20 20:40:00,
2013-03-20 16:45:00,58.2,20.5,29.86,WNW,302,1.0,2.0,23,0.00,,,0.00,Wunderground v.1.15,2013-03-20 20:45:00,
2013-03-20 16:50:00,58.2,20.5,29.86,NW,311,1.0,3.0,23,0.00,,,0.00,Wunderground v.1.15,2013-03-20 20:50:00,
2013-03-20 16:55:00,57.3,20.8,29.86,NW,322,2.0,3.0,24,0.00,,,0.00,Wunderground v.1.15,2013-03-20 20:55:00,
2013-03-20 17:00:00,56.8,21.3,29.86,NW,320,2.0,2.0,25,0.00,,,0.00,Wunderground v.1.15,2013-03-20 21:00:00,
2013-03-20 17:06:00,56.9,21.4,29.86,WNW,298,1.0,2.0,25,0.00,,,0.00,Wunderground v.1.15,2013-03-20 21:06:00,
2013-03-20 17:10:00,56.8,20.3,29.86,NW,323,1.0,1.0,24,0.00,,,0.00,Wunderground v.1.15,2013-03-20 21:10:00,
2013-03-20 17:15:00,56.5,21.1,29.86,North,355,2.0,4.0,25,0.00,,,0.00,Wunderground v.1.15,2013-03-20 21:15:00,
2013-03-20 17:20:00,56.2,19.8,29.86,NW,323,1.0,1.0,24,0.00,,,0.00,Wunderground v.1.15,2013-03-20 21:20:00,
2013-03-20 17:25:00,55.6,20.3,29.86,NW,326,1.0,3.0,25,0.00,,,0.00,Wunderground v.1.15,2013-03-20 21:25:00,
2013-03-20 17:30:00,54.5,19.3,29.86,WSW,256,1.0,2.0,25,0.00,,,0.00,Wunderground v.1.15,2013-03-20 21:30:00,
2013-03-20 17:35:00,53.8,19.7,29.86,West,281,1.0,2.0,26,0.00,,,0.00,Wunderground v.1.15,2013-03-20 21:35:00,
2013-03-20 17:40:00,53.9,22.3,29.86,WNW,295,1.0,2.0,29,0.00,,,0.00,Wunderground v.1.15,2013-03-20 21:40:00,
2013-03-20 17:45:00,54.3,21.0,29.86,WNW,295,1.0,2.0,27,0.00,,,0.00,Wunderground v.1.15,2013-03-20 21:45:00,
2013-03-20 17:50:00,54.0,19.8,29.86,WNW,296,1.0,2.0,26,0.00,,,0.00,Wunderground v.1.15,2013-03-20 21:50:00,
2013-03-20 17:55:00,53.7,20.5,29.86,North,10,1.0,2.0,27,0.00,,,0.00,Wunderground v.1.15,2013-03-20 21:55:00,
2013-03-20 18:00:00,53.6,20.4,29.85,NNW,346,1.0,1.0,27,0.00,,,0.00,Wunderground v.1.15,2013-03-20 22:00:00,
2013-03-20 18:05:00,53.7,20.5,29.85,NNW,343,1.0,1.0,27,0.00,,,0.00,Wunderground v.1.15,2013-03-20 22:05:00,
2013-03-20 18:10:00,53.1,20.0,29.85,NNW,340,1.0,1.0,27,0.00,,,0.00,Wunderground v.1.15,2013-03-20 22:10:00,
2013-03-20 18:15:00,53.1,20.8,29.85,NNW,328,1.0,1.0,28,0.00,,,0.00,Wunderground v.1.15,2013-03-20 22:15:00,
2013-03-20 18:25:00,53.2,20.9,29.85,NNW,338,1.0,1.0,28,0.00,,,0.00,Wunderground v.1.15,2013-03-20 22:25:00,
2013-03-20 18:30:00,53.5,22.0,29.85,NNW,338,0.0,0.0,29,0.00,,,0.00,Wunderground v.1.15,2013-03-20 22:30:00,
2013-03-20 18:35:00,53.9,22.3,29.85,NW,317,0.0,0.0,29,0.00,,,0.00,Wunderground v.1.15,2013-03-20 22:35:00,
2013-03-20 18:40:00,53.6,20.4,29.85,West,273,1.0,1.0,27,0.00,,,0.00,Wunderground v.1.15,2013-03-20 22:40:00,
2013-03-20 18:45:00,53.1,20.8,29.84,West,278,1.0,1.0,28,0.00,,,0.00,Wunderground v.1.15,2013-03-20 22:45:00,
2013-03-20 18:50:00,52.3,20.9,29.85,West,279,1.0,1.0,29,0.00,,,0.00,Wunderground v.1.15,2013-03-20 22:50:00,
2013-03-20 19:00:00,50.6,21.8,29.85,West,279,0.0,0.0,32,0.00,,,0.00,Wunderground v.1.15,2013-03-20 23:00:00,
2013-03-20 19:05:00,49.7,18.7,29.85,WNW,299,1.0,2.0,29,0.00,,,0.00,Wunderground v.1.15,2013-03-20 23:05:00,
2013-03-20 19:10:00,48.8,19.5,29.85,NW,319,1.0,1.0,31,0.00,,,0.00,Wunderground v.1.15,2013-03-20 23:10:00,
2013-03-20 19:15:00,48.3,19.0,29.85,NW,319,1.0,1.0,31,0.00,,,0.00,Wunderground v.1.15,2013-03-20 23:15:00,
2013-03-20 19:20:00,47.9,20.1,29.85,NW,319,0.0,0.0,33,0.00,,,0.00,Wunderground v.1.15,2013-03-20 23:20:00,
2013-03-20 19:25:00,47.4,19.7,29.85,NW,319,0.0,0.0,33,0.00,,,0.00,Wunderground v.1.15,2013-03-20 23:25:00,
2013-03-20 19:30:00,46.8,19.2,29.85,WNW,299,0.0,0.0,33,0.00,,,0.00,Wunderground v.1.15,2013-03-20 23:30:00,
2013-03-20 19:35:00,46.4,19.5,29.85,WNW,299,0.0,1.0,34,0.00,,,0.00,Wunderground v.1.15,2013-03-20 23:35:00,
2013-03-20 19:40:00,45.9,18.4,29.85,NNW,347,1.0,2.0,33,0.00,,,0.00,Wunderground v.1.15,2013-03-20 23:40:00,
2013-03-20 19:45:00,45.4,17.2,29.85,NW,322,1.0,4.0,32,0.00,,,0.00,Wunderground v.1.15,2013-03-20 23:45:00,
2013-03-20 19:55:00,44.7,18.0,29.84,NW,321,1.0,2.0,34,0.00,,,0.00,Wunderground v.1.15,2013-03-20 23:55:00,
2013-03-20 20:00:00,44.5,17.8,29.84,WNW,303,0.0,1.0,34,0.00,,,0.00,Wunderground v.1.15,2013-03-21 00:00:00,
2013-03-20 20:05:00,44.3,19.6,29.85,WNW,288,0.0,1.0,37,0.00,,,0.00,Wunderground v.1.15,2013-03-21 00:05:00,
2013-03-20 20:10:00,44.2,18.9,29.84,WNW,288,0.0,1.0,36,0.00,,,0.00,Wunderground v.1.15,2013-03-21 00:10:00,
2013-03-20 20:15:00,44.0,20.0,29.84,WNW,288,0.0,1.0,38,0.00,,,0.00,Wunderground v.1.15,2013-03-21 00:15:00,
2013-03-20 20:20:00,43.8,19.2,29.84,West,276,0.0,3.0,37,0.00,,,0.00,Wunderground v.1.15,2013-03-21 00:20:00,
2013-03-20 20:25:00,43.7,20.3,29.84,West,273,0.0,3.0,39,0.00,,,0.00,Wunderground v.1.15,2013-03-21 00:25:00,
2013-03-20 20:30:00,43.6,20.2,29.84,West,278,0.0,0.0,39,0.00,,,0.00,Wunderground v.1.15,2013-03-21 00:30:00,
2013-03-20 20:35:00,43.6,20.8,29.85,West,277,0.0,0.0,40,0.00,,,0.00,Wunderground v.1.15,2013-03-21 00:35:00,
2013-03-20 20:40:00,43.5,20.2,29.84,West,278,0.0,1.0,39,0.00,,,0.00,Wunderground v.1.15,2013-03-21 00:40:00,
2013-03-20 20:45:00,43.4,20.1,29.85,West,278,0.0,1.0,39,0.00,,,0.00,Wunderground v.1.15,2013-03-21 00:45:00,
2013-03-20 20:50:00,43.4,20.1,29.85,West,278,0.0,0.0,39,0.00,,,0.00,Wunderground v.1.15,2013-03-21 00:50:00,
2013-03-20 20:55:00,43.4,21.8,29.84,West,277,0.0,0.0,42,0.00,,,0.00,Wunderground v.1.15,2013-03-21 00:55:00,
2013-03-20 21:00:00,43.4,20.7,29.83,West,278,0.0,0.0,40,0.00,,,0.00,Wunderground v.1.15,2013-03-21 01:00:00,
2013-03-20 21:06:00,43.3,21.1,29.84,WNW,300,1.0,1.0,41,0.00,,,0.00,Wunderground v.1.15,2013-03-21 01:06:00,
2013-03-20 21:10:00,43.2,22.2,29.84,NW,308,1.0,1.0,43,0.00,,,0.00,Wunderground v.1.15,2013-03-21 01:10:00,
2013-03-20 21:15:00,43.0,22.5,29.84,NW,308,1.0,1.0,44,0.00,,,0.00,Wunderground v.1.15,2013-03-21 01:15:00,
2013-03-20 21:20:00,42.7,22.8,29.84,NW,311,1.0,1.0,45,0.00,,,0.00,Wunderground v.1.15,2013-03-21 01:20:00,
2013-03-20 21:25:00,42.5,24.2,29.85,NW,311,1.0,1.0,48,0.00,,,0.00,Wunderground v.1.15,2013-03-21 01:25:00,
2013-03-20 21:30:00,42.3,24.0,29.85,NW,310,1.0,1.0,48,0.00,,,0.00,Wunderground v.1.15,2013-03-21 01:30:00,
2013-03-20 21:35:00,42.1,24.3,29.86,WNW,292,1.0,1.0,49,0.00,,,0.00,Wunderground v.1.15,2013-03-21 01:35:00,
2013-03-20 21:40:00,42.0,23.7,29.86,WNW,291,1.0,1.0,48,0.00,,,0.00,Wunderground v.1.15,2013-03-21 01:40:00,
2013-03-20 21:45:00,41.9,25.1,29.86,WNW,295,1.0,3.0,51,0.00,,,0.00,Wunderground v.1.15,2013-03-21 01:45:00,
2013-03-20 21:50:00,41.4,26.0,29.86,WNW,295,2.0,2.0,54,0.00,,,0.00,Wunderground v.1.15,2013-03-21 01:50:00,
2013-03-20 21:55:00,40.7,26.6,29.87,WSW,255,2.0,2.0,57,0.00,,,0.00,Wunderground v.1.15,2013-03-21 01:55:00,
2013-03-20 22:00:00,40.0,26.8,29.87,South,178,2.0,2.0,59,0.00,,,0.00,Wunderground v.1.15,2013-03-21 02:00:00,
2013-03-20 22:05:00,39.7,26.9,29.87,South,179,1.0,2.0,60,0.00,,,0.00,Wunderground v.1.15,2013-03-21 02:05:00,
2013-03-20 22:10:00,39.5,27.2,29.87,WNW,295,1.0,1.0,61,0.00,,,0.00,Wunderground v.1.15,2013-03-21 02:10:00,
2013-03-20 22:15:00,39.4,28.2,29.87,WNW,297,1.0,2.0,64,0.00,,,0.00,Wunderground v.1.15,2013-03-21 02:15:00,
2013-03-20 22:20:00,39.1,28.7,29.87,WNW,297,0.0,0.0,66,0.00,,,0.00,Wunderground v.1.15,2013-03-21 02:20:00,
2013-03-20 22:25:00,38.6,28.2,29.87,NNW,346,1.0,1.0,66,0.00,,,0.00,Wunderground v.1.15,2013-03-21 02:25:00,
2013-03-20 22:30:00,38.3,28.7,29.87,WNW,296,1.0,1.0,68,0.00,,,0.00,Wunderground v.1.15,2013-03-21 02:30:00,
2013-03-20 22:35:00,38.2,28.9,29.87,WNW,296,0.0,2.0,69,0.00,,,0.00,Wunderground v.1.15,2013-03-21 02:35:00,
2013-03-20 22:40:00,38.0,29.1,29.88,WNW,296,1.0,2.0,70,0.00,,,0.00,Wunderground v.1.15,2013-03-21 02:40:00,
2013-03-20 22:45:00,37.7,29.8,29.89,WNW,296,1.0,2.0,73,0.00,,,0.00,Wunderground v.1.15,2013-03-21 02:45:00,
2013-03-20 22:50:00,37.4,30.2,29.89,WNW,296,1.0,1.0,75,0.00,,,0.00,Wunderground v.1.15,2013-03-21 02:50:00,
2013-03-20 22:55:00,37.0,29.5,29.89,WNW,290,1.0,1.0,74,0.00,,,0.00,Wunderground v.1.15,2013-03-21 02:55:00,
2013-03-20 23:05:00,35.4,30.1,29.90,WNW,297,1.0,2.0,81,0.00,,,0.00,Wunderground v.1.15,2013-03-21 03:05:00,
2013-03-20 23:10:00,34.9,30.3,29.90,WNW,298,1.0,1.0,83,0.00,,,0.00,Wunderground v.1.15,2013-03-21 03:10:00,
2013-03-20 23:20:00,34.4,29.8,29.90,WNW,296,0.0,1.0,83,0.00,,,0.00,Wunderground v.1.15,2013-03-21 03:20:00,
2013-03-20 23:25:00,34.1,29.5,29.90,WNW,297,1.0,2.0,83,0.00,,,0.00,Wunderground v.1.15,2013-03-21 03:25:00,
2013-03-20 23:30:00,33.8,29.5,29.90,WNW,297,1.0,1.0,84,0.00,,,0.00,Wunderground v.1.15,2013-03-21 03:30:00,
2013-03-20 23:35:00,33.7,29.1,29.90,WNW,296,0.0,1.0,83,0.00,,,0.00,Wunderground v.1.15,2013-03-21 03:35:00,
2013-03-20 23:40:00,33.6,29.0,29.90,WNW,297,0.0,0.0,83,0.00,,,0.00,Wunderground v.1.15,2013-03-21 03:40:00,
2013-03-20 23:45:00,33.5,28.9,29.90,WNW,297,0.0,0.0,83,0.00,,,0.00,Wunderground v.1.15,2013-03-21 03:45:00,
2013-03-20 23:50:00,33.4,28.5,29.90,WNW,297,0.0,0.0,82,0.00,,,0.00,Wunderground v.1.15,2013-03-21 03:50:00,
2013-03-20 23:55:00,33.3,28.1,29.90,WNW,297,0.0,0.0,81,0.00,,,0.00,Wunderground v.1.15,2013-03-21 03:55:00,